Regional Weather Roundup
Issued by NWS

Home | Current Version | Previous Version | Text Only | Print | Product List | Glossary Off
Versions: 1 2 3 4 5 6 7 8 9 10 11 12 13 14 15 16 17 18 19 20 21 22 23 24 25 26 27 28 29 30 31 32 33 34 35 36 37 38 39 40 41 42 43 44 45 46 47 48 49 50

000
ASUS43 KLSX 012359
RWRMO

WEATHER SUMMARY FOR MISSOURI
NATIONAL WEATHER SERVICE SPRINGFIELD MO
600 PM CST SUN FEB 01 2015

NOTE: "FAIR" INDICATES FEW OR NO CLOUDS BELOW 12,000 FEET WITH NO
       SIGNIFICANT WEATHER AND/OR OBSTRUCTIONS TO VISIBILITY.
       CURRENT SKY AND/OR WEATHER CONDITIONS ARE NOT AVAILABLE FOR
       CHILLICOTHE AND FARMINGTON.

MOZ001>031-035>038-043-044-053-054-020100-
...NORTHERN AND WESTERN MISSOURI...

CITY           SKY/WX    TMP DP  RH WIND       PRES   REMARKS
KANSAS CTY INT LGT SNOW  19  14  81 NW20G31   30.06R WCI   3
6HR MIN TEMP:  19; 6HR MAX TEMP:  29; 6HR PCP: TRACE;

KANSAS C DTWN  LGT SNOW  21  16  81 NW20G29   30.07R VSB 1   WCI   6
6HR MIN TEMP:  21; 6HR MAX TEMP:  33; 6HR PCP: TRACE;

LEE`S SUMMIT   LGT SNOW  21  17  84 NW21G26   30.04R FOG     WCI   5
6HR MIN TEMP:  21; 6HR MAX TEMP:  33; 6HR PCP: TRACE;

ST JOSEPH      LGT SNOW  19  14  81 N24G35    30.12R WCI   2
6HR MIN TEMP:  18; 6HR MAX TEMP:  26; 6HR PCP: TRACE;

CHILLICOTHE      N/A     22  15  75 N12G20    30.02R WCI  10
6HR MIN TEMP:  22; 6HR MAX TEMP:  36; 6HR PCP:  0.04;

KIRKSVILLE     LGT SNOW  20  17  88 N22G30    29.94R FOG     WCI   3
6HR MIN TEMP:  20; 6HR MAX TEMP:  34; 6HR PCP:  0.03;


$$
MOZ066>068-077>081-088>096-101>105-020100-
...SOUTHWEST MISSOURI...

CITY           SKY/WX    TMP DP  RH WIND       PRES   REMARKS
SPRINGFIELD    CLOUDY    26  20  77 NW16G28   29.94R WCI  14
6HR MIN TEMP:  26; 6HR MAX TEMP:  40; 6HR PCP: TRACE;

JOPLIN         CLOUDY    23  15  71 NW23G33   30.08R WCI   7
6HR MIN TEMP:  23; 6HR MAX TEMP:  35;


$$
MOZ032>034-039>042-045>050-055>058-069>072-020100-
...CENTRAL MISSOURI...

CITY           SKY/WX    TMP DP  RH WIND       PRES   REMARKS
COLUMBIA       LGT SNOW  31  31 100 NW21      29.84R FOG     WCI  18
6HR MIN TEMP:  31; 6HR MAX TEMP:  38; 6HR PCP:  0.03;

JEFFERSON CITY LGT SNOW  33  31  92 W18G25    29.84R FOG     WCI  22
6HR MIN TEMP:  32; 6HR MAX TEMP:  39; 6HR PCP:  0.01;

ROLLA          LGT SNOW  32  29  88 W21G29    29.79R FOG     WCI  20
6HR MIN TEMP:  32; 6HR MAX TEMP:  41; 6HR PCP:  0.03;

SEDALIA        LGT SNOW  28  24  85 NW20G29   29.94R FOG     WCI  15
6HR MIN TEMP:  28; 6HR MAX TEMP:  36; 6HR PCP: TRACE;

OSAGE BEACH    CLOUDY    30  25  80 W15G23    29.88R WCI  19

$$
MOZ051-052-059>065-020100-
...EAST CENTRAL MISSOURI...

CITY           SKY/WX    TMP DP  RH WIND       PRES   REMARKS
ST LOUIS INTL  FLURRIES  37  33  85 W14       29.73R WCI  28
6HR MIN TEMP:  37; 6HR MAX TEMP:  42; 6HR PCP:  0.01;

SPIRIT OF STL  CLOUDY    36  32  85 W13       29.75R WCI  27
6HR MIN TEMP:  36; 6HR MAX TEMP:  41; 6HR PCP: TRACE;

ST CHARLES     CLOUDY    35  33  92 NW14      29.73R WCI  26
6HR MIN TEMP:  35; 6HR MAX TEMP:  40; 6HR PCP:  0.02;


$$
MOZ072>076-082>087-097>100-106>115-020100-
...SOUTH CENTRAL AND SOUTHEAST MISSOURI...

CITY           SKY/WX    TMP DP  RH WIND       PRES   REMARKS
CAPE GIRARDEAU CLOUDY    46  43  89 W12       29.69R
6HR MIN TEMP:  46; 6HR MAX TEMP:  49; 6HR PCP:  0.03;

FARMINGTON     CLOUDY    37  34  87 W13G23    29.76R WCI  29
6HR MIN TEMP:  37; 6HR MAX TEMP:  45; 6HR PCP:  0.01;

POPLAR BLUFF   CLOUDY    45  37  73 W20G25    29.74R
6HR MIN TEMP:  45; 6HR MAX TEMP:  51; 6HR PCP:  0.01;

WEST PLAINS    CLOUDY    33  30  88 W16G25    29.84R WCI  23
6HR MIN TEMP:  33; 6HR MAX TEMP:  45; 6HR PCP:  0.03;


$$


USA.gov is the U.S. government's official web portal to all federal, state and local government web resources and services.